Retour au catalogue

STARLINK-11682

ActifCommunicationsVLEO
NORAD 64234·PAYLOAD·🇺🇸 United States

Lancé Jun 3, 2025 depuis Cape Canaveral Space Force Station

Loading…

Prochains Passages (prochaines 24 heures)

TLE

FraisSource: CelesTrak SupGP

Époque: Sep 14, 2026, 21:26 UTC

1 64234C 25119B   26257.89354167 -.00039355  00000+0 -30580-3 0  2574
2 64234  43.0001 149.1651 0001491 264.1692 177.8827 15.70847834    19

Suivez STARLINK-11682 en temps réel avec AllMySat

Download on the App Store